World > North America > United States > Ohio

Hourly Edgewood, OH Regional Weather

Feedback E-mail the Weather

Quick WX

Edgewood, OH Weather Maps

°F °C°F °C
Edgewood Weather Map
UTC Time: 7/1/2022, 02:01
Your Time:

Edgewood, OH Regional Weather

Expires:202207010300;;469468
ASUS41 KCLE 010200
RWRCLE
OHIO REGIONAL WEATHER ROUNDUP
NATIONAL WEATHER SERVICE WILMINGTON, OH
1000 PM EDT THU JUN 30 2022

NOTE: "FAIR" INDICATES FEW OR NO CLOUDS BELOW 12,000 FEET WITH NO
SIGNIFICANT WEATHER AND/OR OBSTRUCTIONS TO VISIBILITY.


OHZ009>014-019>023-028>033-038-089-010300-
   NORTHEAST OHIO
  
CITY           SKY/WX    TMP DP  RH WIND       PRES   REMARKS
CLE-HOPKINS    FAIR      78  54  43 S8        30.03S                  
CLE-LAKEFRONT  FAIR      84  53  34 S9        30.02S                  
CUY CO. ARPT   CLEAR     79  55  44 S5        30.05S                  
LORAIN-ELYRIA  FAIR      79  54  41 S10       30.04S                  
ASHTABULA      FAIR      76  55  48 S6        30.07S                  
AKRON-CANTON   FAIR      76  55  48 S8        30.08F                  
WOOSTER        NOT AVBL                                               
MANSFIELD      FAIR      75  56  51 SE8       30.08R                  
YOUNGSTOWN     FAIR      75  56  51 S5        30.10R                  
$$
 

SKY/WX - Weather  TMP - Temperature  DP - Dew Point  RH - Humidity
WIND - Wind Direction/Speed PRES - Barometric Pressure VSB - Visibility
WCI - Wind Chill Index E13G22 Wind - East Wind 13 mph/Gusts of 22 mph

Trending Headlines

Edgewood Radar Loop



Edgewood Quick Facts


National Two Day Weather Forecast


E-mail the Edgewood Weather Forecast

Voice your opinion or tell us about page issues...